TimeCDT,TemperatureF,Dew PointF,Humidity,Sea Level PressureIn,VisibilityMPH,Wind Direction,Wind SpeedMPH,Gust SpeedMPH,PrecipitationIn,Events,Conditions,WindDirDegrees,DateUTC
1:03 AM,53.6,35.6,51,30.29,10.0,South,5.8,-,N/A,,Clear,190,2012-10-10 06:03:00
1:56 AM,53.6,35.6,51,30.29,10.0,South,6.9,-,N/A,,Clear,180,2012-10-10 06:56:00
3:40 AM,50.0,33.8,54,30.28,10.0,Calm,Calm,-,N/A,,Clear,0,2012-10-10 08:40:00
4:43 AM,48.2,35.6,62,30.29,10.0,WSW,5.8,-,N/A,,Partly Cloudy,250,2012-10-10 09:43:00
5:43 AM,48.2,35.6,62,30.29,10.0,South,5.8,-,N/A,,Partly Cloudy,180,2012-10-10 10:43:00
6:47 AM,48.2,35.6,62,30.31,10.0,SSW,6.9,-,N/A,,Partly Cloudy,200,2012-10-10 11:47:00
7:59 AM,44.6,33.8,66,30.32,10.0,Calm,Calm,-,N/A,,Clear,0,2012-10-10 12:59:00
8:43 AM,48.2,37.4,66,30.33,10.0,Calm,Calm,-,N/A,,Clear,0,2012-10-10 13:43:00
9:42 AM,64.4,50.0,59,30.35,10.0,Calm,Calm,-,N/A,,Clear,0,2012-10-10 14:42:00
10:42 AM,71.6,44.6,38,30.35,10.0,Calm,Calm,-,N/A,,Clear,0,2012-10-10 15:42:00
11:42 AM,75.2,42.8,31,30.35,10.0,SSE,9.2,-,N/A,,Partly Cloudy,150,2012-10-10 16:42:00
12:42 PM,78.8,42.8,28,30.34,10.0,East,17.3,-,N/A,,Scattered Clouds,90,2012-10-10 17:42:00
1:43 PM,75.2,39.2,27,30.31,10.0,East,9.2,-,N/A,,Mostly Cloudy,100,2012-10-10 18:43:00
2:43 PM,78.8,39.2,24,30.28,10.0,SSE,11.5,-,N/A,,Mostly Cloudy,160,2012-10-10 19:43:00
3:52 PM,80.6,41.0,24,30.25,10.0,ESE,17.3,-,N/A,,Mostly Cloudy,120,2012-10-10 20:52:00
5:25 PM,78.8,39.2,24,30.23,10.0,SE,17.3,-,N/A,,Mostly Cloudy,130,2012-10-10 22:25:00
6:00 PM,78.8,39.2,24,30.23,10.0,SE,17.3,-,N/A,,Mostly Cloudy,130,2012-10-10 23:00:00
6:42 PM,77.0,39.2,26,30.23,10.0,SE,9.2,-,N/A,,Mostly Cloudy,130,2012-10-10 23:42:00
7:42 PM,71.6,39.2,31,30.24,10.0,SE,13.8,-,N/A,,Scattered Clouds,130,2012-10-11 00:42:00
8:42 PM,69.8,39.2,33,30.26,10.0,SE,11.5,-,N/A,,Scattered Clouds,130,2012-10-11 01:42:00
9:41 PM,66.2,42.8,43,30.28,10.0,SE,18.4,-,N/A,,Partly Cloudy,130,2012-10-11 02:41:00
10:41 PM,64.4,44.6,49,30.30,10.0,SE,18.4,-,N/A,,Clear,130,2012-10-11 03:41:00
11:41 PM,64.4,42.8,45,30.31,10.0,SE,18.4,-,N/A,,Clear,140,2012-10-11 04:41:00